weather.gov     
National Weather Service

Regional Weather Roundup
NWS Homepage
This page is being discontinued on March 12, 2014.
The same data is available at this site. Please update your bookmarks.
Thank you, and we apologize for the inconvenience.
Please send an email to SR-SRH.Webmaster@noaa.gov with any concerns.


Current Version
Previous Version:    01  02  03  04  05  06  07  08  09  10  11  12  13  14  15  16  17  18  19  20  21  22  23  24  25  26  27  28  29  30  
   31  32  33  34  35  36  37  38  39  40  41  42  43  44  45  46  47  48  49  50  51  52  53  54  55  56  57  58  59  60  
[Printable]
463
NZUS01 KOTX 301000
RWROTX
EASTERN WASHINGTON/NORTHERN IDAHO ROUNDUP
NATIONAL WEATHER SERVICE, SPOKANE WA
300 AM PDT TUE SEP 30 2014

Note: "fair" indicated few or no clouds below 12,000 feet with no
significant weather and/or obstructions to visibility.

...NORTHEAST WASHINGTON AND NORTHERN IDAHO PANHANDLE...

CITY           SKY/WX    TMP DP  RH WIND       PRES   REMARKS
SPOKANE INTL   CLOUDY    53  49  86 S17       29.78S
SPOKANE DOWNTO CLOUDY    56  50  80 SW9       29.79R
COEUR D ALENE  CLOUDY    55  50  82 SW12      29.78S
DEER PARK      CLOUDY    56  48  74 S13       29.76S

...SOUTHEAST WASHINGTON AND SOUTHERN IDAHO PANHANDLE...

CITY           SKY/WX    TMP DP  RH WIND       PRES   REMARKS
WALLA WALLA    CLOUDY    59  43  55 SW16G26   29.93R
PULLMAN/MOSCOW LGT RAIN  53  50  89 SW14      29.87S
LOWELL           N/A     55  54  96 SW3       29.86F

...COLUMBIA BASIN...

CITY           SKY/WX    TMP DP  RH WIND       PRES   REMARKS
EPHRATA        MOCLDY    60  36  40 E10G26    29.80R
MOSES LAKE     PTCLDY    60  38  43 W17G24    29.83R
TRI CITIES     CLEAR     56  47  71 SW10      29.89R
HERMISTON      CLEAR     58  43  57 W17G26    29.92R
PENDLETON      PTCLDY    55  39  54 W17G25    29.94R

...EAST SLOPES CASCADES...

CITY           SKY/WX    TMP DP  RH WIND       PRES   REMARKS
THE DALLES     PTCLDY    58  46  64 NW8       29.98R
YAKIMA         CLEAR     55  38  52 SE5       29.90R
ELLENSBURG     CLEAR     53  40  61 NW18G26   29.89S
WENATCHEE      CLEAR     58  37  45 NW17      29.83S
OMAK           PTCLDY    54  44  69 N9        29.78R

...SOUTHERN BRITISH COLUMBIA...

CITY           SKY/WX    TMP DP  RH WIND       PRES   REMARKS

...WESTERN MONTANA...

CITY           SKY/WX    TMP DP  RH WIND       PRES   REMARKS
MISSOULA       CLOUDY    50  50 100 CALM      29.83F

...NEIGHBORING CITIES...

CITY           SKY/WX    TMP DP  RH WIND       PRES   REMARKS
SEATTLE        CLOUDY    56  52  86 SE5       30.03R




U.S. Dept. of Commerce
NOAA National Weather Service
1325 East West Highway
Silver Spring, MD 20910
E-mail: w-nws.webmaster@noaa.gov
Page last modified: May 16, 2007
NATIONAL WEATHER SERVICE: for Safety, for Work, for Fun - FOR LIFE